Orbital Elements at Epoch 2459200.5 (2020-Dec-17.0) TDB
Reference: JPL 30 (heliocentric ecliptic J2000)
Element | Value | Uncertainty (1-sigma) | Units |
e | .1569071619678887 | 3.6835e-08 | |
a | 2.418778614586074 | 6.7111e-09 | au |
q | 2.039254926742752 | 8.997e-08 | au |
i | 1.719791675173694 | 3.6829e-06 | deg |
node | 316.3829014474604 | 0.0001164 | deg |
peri | 219.3476507874427 | 0.00011683 | deg |
M | 321.8588574552273 | 1.0432e-05 | deg |
tp | 2459346.073996447382 (2021-May-11.57399645) | 3.9943e-05 | TDB |
period | 1374.01858529904 3.76 | 5.7185e-06 1.566e-08 | d yr |
n | .2620051896326061 | 1.0904e-09 | deg/d |
Q | 2.798302302429397 | 7.7641e-09 | au |
|
| | Orbit Determination Parameters
Additional Information
|